ABS-3A (40424 NORAD) Tracking and Keplerian Element Data

This shows tracking and keplerian element data for the satellite.

Feedback or suggestion? Click here.




ElementValue
Catalog40424
NameABS-3A
Epoch Orbit3394
Epoch Day158.27681543
Epoch Year2024
RAAN48.6006
Inclination0.028
Eccentricity0.0001741
Argument of Perigee325.4562
Mean Anonmoly337.786
Mean Motion1.00276332
Decay Rate-2.4E-07
L11 40424U 15010A 24158.27681543 -.00000024 00000+0 00000+0 0 9992
L22 40424 0.0280 48.6006 0001741 325.4562 337.7860 1.00276332 33947



Live tracking and technical data element details for ABS-3A (NORAD 40424). ABS-3A can be tracked NOW for your location showing map with azimuth and elevation plus other details from your city location.







IsCatalogInMostPopularTable: catalog: 40424, numindb: 622
Update: records affected: 1



GetName: 40424 ABS-3A

Hit Count: updated at: Mon, 17 Jun 2024 22:08:23 GMT